QPF
0.00 0.00 0.00 0.00 0.00 0.00 0.00 0.00 0.00 0.00 0.00 0.00 0.00 0.00 0.00 0.00 0.00 0.00 0.00 0.00 0.00 0.00 0.00 0.00 0.00 0.00 0.00 0.01 0.01 0.00 0.00 0.00 0.00 0.01 0.02 0.02 0.01 0.00 0.01 0.02 0.04 0.03 0.06
0.00 0.00 0.00 0.00 0.00 0.00 0.00 0.00 0.00 0.00 0.00 0.00 0.00 0.00 0.00 0.00 0.00 0.00 0.00 0.00 0.00 0.00 0.00 0.00 0.00 0.00 0.00 0.00 0.00 0.00 0.00 0.00 0.00 0.01 0.03 0.03 0.03 0.03 0.03 0.04 0.03 0.05 0.05
0.00 0.00 0.00 0.00 0.00 0.00 0.00 0.00 0.00 0.00 0.00 0.00 0.00 0.00 0.00 0.00 0.00 0.00 0.00 0.00 0.00 0.00 0.00 0.00 0.00 0.00 0.00 0.00 0.00 0.00 0.00 0.00 0.00 0.00 0.01 0.00 0.01 0.04 0.03 0.02 0.02 0.03 0.03
0.00 0.00 0.00 0.00 0.00 0.00 0.00 0.00 0.00 0.00 0.00 0.00 0.00 0.00 0.00 0.00 0.00 0.00 0.00 0.00 0.00 0.00 0.00 0.00 0.00 0.00 0.00 0.00 0.00 0.00 0.00 0.00 0.00 0.00 0.01 0.01 0.00 0.01 0.00 0.00 0.00 0.01 0.01
0.00 0.00 0.00 0.00 0.00 0.00 0.00 0.00 0.00 0.00 0.00 0.00 0.00 0.00 0.00 0.00 0.00 0.00 0.00 0.00 0.00 0.00 0.00 0.00 0.00 0.00 0.00 0.00 0.00 0.00 0.00 0.00 0.00 0.00 0.02 0.01 0.00 0.00 0.00 0.00 0.00 0.00 0.00
0.00 0.00 0.00 0.00 0.00 0.00 0.00 0.00 0.00 0.00 0.00 0.00 0.00 0.00 0.00 0.00 0.00 0.00 0.00 0.00 0.00 0.00 0.00 0.00 0.00 0.00 0.00 0.00 0.00 0.00 0.00 0.00 0.00 0.01 0.04 0.03 0.01 0.01 0.00 0.00 0.00 0.00 0.00
0.00 0.00 0.00 0.00 0.00 0.00 0.00 0.00 0.00 0.00 0.00 0.00 0.00 0.00 0.00 0.00 0.00 0.00 0.00 0.00 0.00 0.00 0.00 0.00 0.00 0.00 0.00 0.00 0.00 0.00 0.00 0.00 0.00 0.02 0.06 0.05 0.03 0.03 0.00 0.00 0.00 0.00 0.00
0.00 0.00 0.00 0.00 0.00 0.00 0.00 0.00 0.00 0.00 0.00 0.00 0.00 0.00 0.00 0.00 0.00 0.00 0.00 0.00 0.00 0.00 0.01 0.00 0.00 0.00 0.00 0.00 0.00 0.00 0.00 0.00 0.00 0.01 0.05 0.06 0.03 0.05 0.02 0.00 0.00 0.00 0.00
0.00 0.00 0.00 0.00 0.00 0.00 0.00 0.00 0.00 0.00 0.00 0.00 0.00 0.00 0.00 0.00 0.00 0.00 0.00 0.00 0.00 0.01 0.01 0.01 0.01 0.00 0.00 0.00 0.00 0.00 0.00 0.00 0.00 0.01 0.03 0.05 0.05 0.08 0.05 0.01 0.00 0.00 0.00
0.01 0.00 0.00 0.00 0.00 0.00 0.00 0.00 0.00 0.00 0.00 0.00 0.00 0.00 0.00 0.00 0.00 0.00 0.01 0.01 0.01 0.02 0.02 0.02 0.02 0.02 0.01 0.01 0.00 0.00 0.00 0.00 0.00 0.00 0.02 0.03 0.08 0.12 0.08 0.03 0.01 0.00 0.00
0.02 0.02 0.01 0.01 0.01 0.02 0.02 0.01 0.00 0.00 0.00 0.00 0.00 0.00 0.00 0.00 0.00 0.00 0.01 0.02 0.02 0.03 0.04 0.05 0.05 0.05 0.04 0.03 0.02 0.01 0.01 0.00 0.00 0.00 0.01 0.02 0.09 0.14 0.11 0.07 0.03 0.01 0.00
0.03 0.03 0.03 0.03 0.05 0.06 0.05 0.06 0.04 0.02 0.02 0.02 0.01 0.01 0.01 0.01 0.01 0.01 0.03 0.06 0.09 0.11 0.13 0.12 0.13 0.12 0.10 0.08 0.06 0.05 0.03 0.02 0.00 0.00 0.00 0.02 0.09 0.14 0.14 0.11 0.06 0.03 0.01
0.07 0.04 0.04 0.04 0.05 0.05 0.05 0.06 0.07 0.06 0.06 0.07 0.05 0.04 0.05 0.05 0.05 0.05 0.07 0.12 0.16 0.21 0.24 0.25 0.26 0.23 0.19 0.15 0.13 0.10 0.07 0.06 0.03 0.02 0.02 0.04 0.09 0.14 0.16 0.13 0.10 0.06 0.03
0.09 0.07 0.06 0.06 0.06 0.06 0.05 0.06 0.06 0.07 0.09 0.10 0.09 0.12 0.12 0.10 0.08 0.07 0.08 0.11 0.18 0.26 0.33 0.39 0.39 0.35 0.29 0.24 0.23 0.20 0.15 0.12 0.09 0.08 0.09 0.15 0.19 0.21 0.20 0.15 0.11 0.08 0.05
0.08 0.08 0.09 0.10 0.09 0.08 0.05 0.04 0.04 0.04 0.05 0.07 0.08 0.09 0.09 0.07 0.06 0.05 0.06 0.08 0.12 0.17 0.24 0.31 0.37 0.40 0.37 0.33 0.30 0.27 0.24 0.23 0.23 0.22 0.23 0.29 0.31 0.24 0.21 0.20 0.14 0.09 0.06
0.12 0.13 0.13 0.13 0.11 0.07 0.04 0.03 0.03 0.03 0.03 0.03 0.03 0.03 0.04 0.03 0.04 0.03 0.04 0.07 0.08 0.09 0.13 0.21 0.34 0.47 0.49 0.43 0.38 0.36 0.34 0.32 0.30 0.32 0.30 0.28 0.33 0.27 0.21 0.19 0.16 0.11 0.08
0.14 0.14 0.13 0.12 0.09 0.05 0.04 0.02 0.02 0.01 0.01 0.02 0.02 0.01 0.02 0.02 0.02 0.02 0.03 0.04 0.05 0.07 0.09 0.13 0.19 0.28 0.36 0.38 0.37 0.38 0.42 0.39 0.32 0.29 0.32 0.30 0.26 0.30 0.28 0.23 0.20 0.16 0.12
0.10 0.10 0.11 0.09 0.06 0.04 0.02 0.01 0.00 0.00 0.00 0.01 0.01 0.01 0.02 0.02 0.02 0.02 0.02 0.02 0.02 0.03 0.05 0.07 0.10 0.15 0.22 0.29 0.31 0.31 0.30 0.32 0.32 0.30 0.27 0.26 0.28 0.27 0.28 0.28 0.23 0.19 0.14
0.05 0.05 0.05 0.04 0.02 0.01 0.00 0.00 0.00 0.00 0.00 0.01 0.02 0.02 0.03 0.03 0.02 0.02 0.02 0.02 0.01 0.01 0.01 0.03 0.05 0.09 0.15 0.21 0.23 0.22 0.22 0.20 0.21 0.23 0.24 0.21 0.23 0.23 0.21 0.20 0.23 0.18 0.16
0.02 0.02 0.01 0.00 0.00 0.00 0.00 0.00 0.00 0.00 0.00 0.00 0.01 0.02 0.02 0.02 0.02 0.02 0.02 0.03 0.02 0.01 0.01 0.03 0.05 0.07 0.08 0.11 0.14 0.15 0.16 0.14 0.13 0.11 0.10 0.12 0.13 0.13 0.13 0.15 0.17 0.15 0.16
0.00 0.00 0.00 0.00 0.00 0.00 0.00 0.00 0.00 0.00 0.00 0.00 0.00 0.00 0.00 0.01 0.01 0.02 0.02 0.03 0.03 0.02 0.03 0.04 0.05 0.05 0.06 0.07 0.08 0.08 0.07 0.07 0.07 0.06 0.05 0.05 0.09 0.11 0.11 0.15 0.17 0.13 0.10
0.00 0.00 0.00 0.00 0.00 0.00 0.00 0.00 0.00 0.00 0.00 0.00 0.00 0.00 0.00 0.00 0.00 0.00 0.00 0.01 0.02 0.03 0.04 0.06 0.07 0.05 0.05 0.07 0.09 0.09 0.06 0.04 0.05 0.05 0.05 0.05 0.06 0.11 0.15 0.18 0.17 0.11 0.08
0.00 0.00 0.00 0.00 0.00 0.00 0.00 0.00 0.00 0.00 0.00 0.00 0.00 0.00 0.00 0.00 0.00 0.00 0.00 0.01 0.01 0.03 0.04 0.06 0.08 0.07 0.06 0.06 0.09 0.11 0.08 0.04 0.04 0.06 0.07 0.07 0.07 0.09 0.13 0.18 0.16 0.10 0.07
0.00 0.00 0.00 0.00 0.00 0.00 0.00 0.00 0.00 0.00 0.00 0.00 0.00 0.00 0.00 0.00 0.00 0.00 0.00 0.00 0.00 0.01 0.02 0.04 0.07 0.09 0.08 0.07 0.08 0.09 0.09 0.07 0.05 0.04 0.07 0.08 0.07 0.08 0.07 0.10 0.12 0.10 0.07
0.00 0.00 0.00 0.00 0.00 0.00 0.00 0.00 0.00 0.00 0.00 0.00 0.00 0.00 0.00 0.00 0.00 0.00 0.00 0.00 0.00 0.00 0.01 0.01 0.04 0.07 0.10 0.11 0.10 0.09 0.09 0.09 0.07 0.04 0.03 0.04 0.05 0.04 0.03 0.03 0.03 0.04 0.04
0.00 0.00 0.00 0.00 0.00 0.00 0.00 0.00 0.00 0.00 0.00 0.00 0.00 0.00 0.00 0.00 0.00 0.00 0.00 0.00 0.00 0.00 0.00 0.00 0.01 0.02 0.06 0.09 0.10 0.11 0.12 0.12 0.09 0.06 0.02 0.01 0.02 0.03 0.03 0.02 0.02 0.01 0.01
MSLP
1011.52 1011.11 1010.80 1010.69 1010.78 1011.07 1011.47 1011.90 1012.30 1012.62 1012.85 1013.00 1013.14 1013.29 1013.51 1013.78 1014.09 1014.42 1014.72 1014.96 1015.12 1015.22 1015.27 1015.30 1015.33 1015.38 1015.45 1015.53 1015.61 1015.68 1015.72 1015.74 1015.76 1015.79 1015.84 1015.92 1016.03 1016.16 1016.28 1016.40 1016.51 1016.61 1016.72
1011.39 1011.06 1010.85 1010.83 1010.99 1011.30 1011.69 1012.09 1012.44 1012.72 1012.93 1013.09 1013.26 1013.47 1013.73 1014.05 1014.38 1014.70 1014.95 1015.14 1015.24 1015.29 1015.31 1015.32 1015.36 1015.43 1015.51 1015.61 1015.69 1015.74 1015.77 1015.78 1015.80 1015.84 1015.92 1016.04 1016.20 1016.36 1016.53 1016.67 1016.79 1016.89 1017.00
1011.18 1010.96 1010.86 1010.94 1011.18 1011.54 1011.93 1012.31 1012.62 1012.85 1013.03 1013.19 1013.37 1013.61 1013.90 1014.23 1014.55 1014.83 1015.04 1015.17 1015.22 1015.23 1015.23 1015.25 1015.31 1015.41 1015.53 1015.64 1015.73 1015.79 1015.82 1015.83 1015.85 1015.92 1016.03 1016.19 1016.38 1016.58 1016.77 1016.92 1017.05 1017.15 1017.25
1010.95 1010.83 1010.86 1011.05 1011.38 1011.78 1012.19 1012.54 1012.81 1013.00 1013.15 1013.29 1013.47 1013.71 1014.00 1014.31 1014.60 1014.84 1014.99 1015.06 1015.08 1015.07 1015.08 1015.13 1015.23 1015.37 1015.53 1015.68 1015.78 1015.85 1015.88 1015.90 1015.94 1016.02 1016.16 1016.35 1016.57 1016.79 1016.99 1017.15 1017.27 1017.37 1017.46
1010.72 1010.71 1010.86 1011.17 1011.59 1012.04 1012.45 1012.78 1013.01 1013.15 1013.26 1013.38 1013.54 1013.76 1014.03 1014.31 1014.56 1014.75 1014.85 1014.88 1014.87 1014.86 1014.90 1014.99 1015.15 1015.35 1015.55 1015.73 1015.86 1015.94 1015.98 1016.00 1016.05 1016.15 1016.31 1016.51 1016.74 1016.96 1017.16 1017.31 1017.43 1017.52 1017.62
1010.56 1010.65 1010.91 1011.32 1011.81 1012.29 1012.70 1012.99 1013.18 1013.28 1013.34 1013.43 1013.58 1013.78 1014.03 1014.27 1014.48 1014.61 1014.67 1014.67 1014.66 1014.67 1014.74 1014.89 1015.11 1015.36 1015.61 1015.82 1015.96 1016.05 1016.09 1016.12 1016.18 1016.28 1016.44 1016.64 1016.86 1017.07 1017.25 1017.39 1017.50 1017.59 1017.70
1010.50 1010.68 1011.03 1011.51 1012.04 1012.52 1012.90 1013.15 1013.29 1013.34 1013.38 1013.46 1013.59 1013.78 1014.00 1014.22 1014.38 1014.48 1014.50 1014.49 1014.48 1014.52 1014.64 1014.84 1015.11 1015.41 1015.69 1015.91 1016.07 1016.15 1016.19 1016.22 1016.27 1016.37 1016.52 1016.71 1016.91 1017.10 1017.25 1017.37 1017.47 1017.57 1017.70
1010.59 1010.84 1011.25 1011.76 1012.28 1012.72 1013.05 1013.24 1013.32 1013.34 1013.36 1013.43 1013.57 1013.76 1013.97 1014.17 1014.30 1014.37 1014.37 1014.35 1014.35 1014.41 1014.57 1014.81 1015.12 1015.44 1015.74 1015.97 1016.12 1016.20 1016.23 1016.26 1016.30 1016.39 1016.53 1016.69 1016.86 1017.01 1017.14 1017.24 1017.33 1017.45 1017.61
1010.83 1011.12 1011.56 1012.05 1012.51 1012.88 1013.12 1013.24 1013.26 1013.25 1013.27 1013.35 1013.51 1013.72 1013.94 1014.13 1014.24 1014.29 1014.27 1014.24 1014.25 1014.32 1014.50 1014.76 1015.08 1015.42 1015.72 1015.95 1016.09 1016.16 1016.18 1016.20 1016.23 1016.31 1016.43 1016.57 1016.71 1016.83 1016.93 1017.02 1017.11 1017.24 1017.44
1011.20 1011.52 1011.94 1012.38 1012.75 1013.01 1013.14 1013.16 1013.13 1013.10 1013.13 1013.24 1013.43 1013.66 1013.90 1014.08 1014.18 1014.21 1014.18 1014.13 1014.13 1014.21 1014.39 1014.65 1014.97 1015.30 1015.58 1015.79 1015.93 1015.99 1016.01 1016.03 1016.07 1016.14 1016.24 1016.36 1016.47 1016.57 1016.65 1016.72 1016.82 1016.98 1017.20
1011.68 1012.01 1012.39 1012.73 1012.98 1013.11 1013.11 1013.04 1012.96 1012.91 1012.95 1013.09 1013.32 1013.58 1013.82 1014.00 1014.10 1014.10 1014.05 1013.99 1013.97 1014.04 1014.21 1014.45 1014.75 1015.05 1015.32 1015.52 1015.64 1015.70 1015.74 1015.76 1015.81 1015.89 1015.98 1016.08 1016.17 1016.24 1016.30 1016.37 1016.48 1016.66 1016.92
1012.22 1012.55 1012.86 1013.08 1013.19 1013.18 1013.06 1012.91 1012.77 1012.71 1012.77 1012.93 1013.18 1013.46 1013.71 1013.88 1013.95 1013.94 1013.86 1013.79 1013.75 1013.80 1013.95 1014.17 1014.44 1014.71 1014.95 1015.13 1015.26 1015.33 1015.38 1015.43 1015.50 1015.58 1015.67 1015.76 1015.83 1015.88 1015.93 1016.00 1016.11 1016.30 1016.59
1012.79 1013.08 1013.30 1013.41 1013.38 1013.24 1013.02 1012.79 1012.61 1012.54 1012.61 1012.79 1013.04 1013.32 1013.55 1013.70 1013.75 1013.71 1013.62 1013.53 1013.48 1013.51 1013.63 1013.83 1014.07 1014.31 1014.53 1014.70 1014.83 1014.92 1015.00 1015.07 1015.16 1015.25 1015.34 1015.41 1015.46 1015.50 1015.53 1015.59 1015.71 1015.92 1016.22
1013.32 1013.56 1013.69 1013.69 1013.54 1013.29 1013.00 1012.72 1012.52 1012.45 1012.51 1012.68 1012.92 1013.17 1013.36 1013.48 1013.49 1013.43 1013.33 1013.24 1013.19 1013.22 1013.32 1013.49 1013.70 1013.91 1014.11 1014.27 1014.40 1014.51 1014.61 1014.71 1014.81 1014.91 1014.99 1015.05 1015.08 1015.09 1015.11 1015.16 1015.29 1015.50 1015.81
1013.79 1013.95 1014.00 1013.90 1013.67 1013.35 1013.02 1012.72 1012.53 1012.45 1012.50 1012.65 1012.84 1013.03 1013.17 1013.23 1013.21 1013.14 1013.04 1012.95 1012.92 1012.95 1013.05 1013.20 1013.38 1013.57 1013.74 1013.88 1014.01 1014.13 1014.25 1014.36 1014.47 1014.57 1014.63 1014.66 1014.66 1014.65 1014.65 1014.69 1014.82 1015.05 1015.36
1014.14 1014.23 1014.19 1014.02 1013.75 1013.42 1013.10 1012.82 1012.65 1012.58 1012.61 1012.71 1012.84 1012.94 1013.00 1013.00 1012.94 1012.85 1012.77 1012.71 1012.71 1012.76 1012.87 1013.00 1013.16 1013.31 1013.44 1013.56 1013.68 1013.80 1013.91 1014.03 1014.13 1014.21 1014.24 1014.24 1014.20 1014.16 1014.14 1014.18 1014.31 1014.54 1014.87
1014.36 1014.37 1014.27 1014.07 1013.80 1013.50 1013.23 1013.02 1012.89 1012.83 1012.84 1012.88 1012.92 1012.92 1012.88 1012.81 1012.71 1012.61 1012.55 1012.53 1012.57 1012.65 1012.76 1012.89 1013.01 1013.12 1013.21 1013.30 1013.39 1013.48 1013.58 1013.68 1013.76 1013.81 1013.81 1013.76 1013.68 1013.61 1013.57 1013.60 1013.74 1013.98 1014.33
1014.46 1014.39 1014.25 1014.05 1013.82 1013.60 1013.42 1013.29 1013.22 1013.19 1013.17 1013.14 1013.08 1012.97 1012.83 1012.68 1012.54 1012.44 1012.39 1012.42 1012.49 1012.60 1012.72 1012.83 1012.91 1012.97 1013.01 1013.05 1013.10 1013.16 1013.24 1013.31 1013.36 1013.37 1013.32 1013.23 1013.11 1013.00 1012.94 1012.97 1013.12 1013.38 1013.75
1014.45 1014.32 1014.16 1013.98 1013.82 1013.71 1013.64 1013.62 1013.62 1013.62 1013.58 1013.47 1013.31 1013.09 1012.85 1012.61 1012.43 1012.32 1012.29 1012.34 1012.45 1012.57 1012.69 1012.77 1012.81 1012.82 1012.80 1012.79 1012.79 1012.82 1012.86 1012.90 1012.92 1012.89 1012.80 1012.66 1012.51 1012.37 1012.29 1012.31 1012.46 1012.74 1013.14
1014.35 1014.19 1014.03 1013.90 1013.82 1013.82 1013.87 1013.96 1014.03 1014.06 1014.00 1013.83 1013.58 1013.25 1012.91 1012.61 1012.37 1012.24 1012.22 1012.29 1012.41 1012.53 1012.63 1012.68 1012.67 1012.62 1012.54 1012.48 1012.44 1012.44 1012.46 1012.47 1012.46 1012.40 1012.27 1012.10 1011.90 1011.73 1011.63 1011.64 1011.79 1012.08 1012.49
1014.22 1014.04 1013.89 1013.81 1013.82 1013.92 1014.08 1014.27 1014.41 1014.47 1014.39 1014.18 1013.84 1013.43 1013.01 1012.64 1012.36 1012.21 1012.17 1012.24 1012.35 1012.45 1012.52 1012.52 1012.46 1012.35 1012.23 1012.13 1012.06 1012.04 1012.04 1012.05 1012.02 1011.93 1011.78 1011.57 1011.34 1011.14 1011.01 1011.00 1011.14 1011.42 1011.82
1014.09 1013.92 1013.79 1013.76 1013.83 1014.01 1014.26 1014.51 1014.71 1014.78 1014.70 1014.45 1014.07 1013.60 1013.12 1012.69 1012.37 1012.19 1012.14 1012.18 1012.25 1012.32 1012.35 1012.30 1012.19 1012.04 1011.88 1011.76 1011.68 1011.66 1011.66 1011.67 1011.64 1011.54 1011.37 1011.14 1010.88 1010.64 1010.47 1010.42 1010.52 1010.77 1011.15
1014.01 1013.85 1013.74 1013.74 1013.85 1014.07 1014.36 1014.65 1014.88 1014.97 1014.89 1014.63 1014.22 1013.72 1013.21 1012.75 1012.41 1012.19 1012.11 1012.11 1012.14 1012.16 1012.13 1012.03 1011.88 1011.70 1011.52 1011.40 1011.33 1011.32 1011.34 1011.37 1011.35 1011.25 1011.07 1010.82 1010.53 1010.25 1010.04 1009.94 1009.99 1010.18 1010.50
1014.00 1013.86 1013.76 1013.76 1013.87 1014.09 1014.38 1014.68 1014.92 1015.02 1014.94 1014.69 1014.28 1013.79 1013.28 1012.82 1012.46 1012.22 1012.10 1012.05 1012.03 1012.00 1011.91 1011.77 1011.58 1011.38 1011.20 1011.08 1011.04 1011.06 1011.11 1011.16 1011.16 1011.07 1010.89 1010.62 1010.31 1009.99 1009.73 1009.57 1009.55 1009.66 1009.91
1014.07 1013.95 1013.84 1013.81 1013.89 1014.07 1014.33 1014.60 1014.82 1014.92 1014.86 1014.63 1014.26 1013.80 1013.32 1012.88 1012.52 1012.27 1012.12 1012.03 1011.95 1011.86 1011.72 1011.53 1011.32 1011.11 1010.94 1010.84 1010.82 1010.87 1010.96 1011.03 1011.05 1010.98 1010.80 1010.53 1010.20 1009.85 1009.54 1009.32 1009.22 1009.25 1009.41
1014.21 1014.09 1013.96 1013.88 1013.90 1014.02 1014.21 1014.43 1014.62 1014.71 1014.67 1014.47 1014.15 1013.75 1013.32 1012.92 1012.59 1012.34 1012.16 1012.03 1011.90 1011.76 1011.57 1011.35 1011.12 1010.91 1010.75 1010.67 1010.68 1010.75 1010.86 1010.95 1010.99 1010.93 1010.76 1010.49 1010.15 1009.79 1009.45 1009.18 1009.02 1008.98 1009.05
Thickness
5825 5825 5823 5821 5819 5817 5814 5811 5808 5804 5801 5798 5795 5792 5790 5788 5785 5783 5782 5780 5778 5776 5773 5771 5768 5766 5765 5763 5762 5760 5759 5758 5756 5755 5754 5753 5752 5752 5751 5750 5750 5749 5748
5831 5826 5824 5821 5818 5816 5813 5809 5806 5803 5799 5796 5793 5790 5788 5785 5783 5781 5780 5778 5776 5774 5772 5770 5768 5766 5764 5762 5761 5759 5758 5757 5755 5754 5754 5753 5752 5751 5750 5749 5749 5748 5747
5831 5827 5823 5820 5817 5814 5811 5808 5805 5801 5798 5795 5792 5789 5786 5784 5781 5779 5777 5776 5774 5772 5770 5768 5767 5765 5763 5761 5760 5758 5757 5756 5755 5753 5752 5752 5751 5751 5750 5749 5748 5747 5746
5830 5826 5823 5819 5816 5813 5810 5807 5803 5800 5796 5793 5790 5787 5784 5782 5779 5777 5775 5774 5772 5771 5769 5767 5765 5763 5761 5760 5758 5757 5756 5754 5753 5752 5751 5751 5751 5750 5749 5748 5747 5746 5745
5827 5824 5821 5817 5813 5810 5807 5804 5801 5798 5794 5791 5788 5785 5782 5780 5777 5775 5773 5771 5770 5768 5766 5764 5762 5761 5759 5757 5756 5755 5754 5753 5752 5751 5750 5749 5749 5749 5748 5747 5746 5745 5744
5823 5820 5817 5814 5810 5807 5804 5801 5798 5795 5791 5788 5785 5782 5780 5777 5775 5772 5770 5768 5767 5765 5763 5762 5760 5758 5756 5755 5754 5753 5752 5751 5750 5750 5749 5748 5748 5748 5747 5746 5745 5745 5744
5820 5816 5814 5810 5807 5803 5800 5797 5794 5791 5788 5785 5782 5779 5777 5774 5772 5770 5767 5765 5763 5762 5760 5758 5757 5755 5753 5751 5751 5750 5750 5749 5749 5748 5748 5747 5747 5747 5746 5745 5744 5744 5743
5818 5814 5810 5807 5803 5799 5796 5793 5790 5787 5784 5781 5778 5776 5773 5771 5768 5766 5764 5762 5760 5758 5756 5754 5753 5751 5749 5748 5747 5747 5747 5747 5747 5746 5745 5745 5746 5746 5745 5744 5743 5743 5742
5814 5810 5806 5802 5799 5795 5791 5788 5785 5782 5779 5777 5774 5772 5769 5767 5764 5762 5760 5757 5755 5753 5751 5749 5748 5746 5745 5743 5742 5742 5742 5743 5743 5743 5743 5743 5744 5744 5744 5744 5743 5742 5741
5807 5804 5801 5797 5794 5790 5787 5784 5781 5779 5776 5773 5771 5768 5766 5763 5761 5758 5756 5754 5752 5749 5747 5744 5742 5741 5739 5738 5737 5736 5737 5738 5739 5740 5740 5740 5742 5742 5742 5742 5742 5741 5740
5798 5797 5795 5792 5789 5786 5784 5781 5778 5776 5773 5771 5768 5765 5763 5760 5757 5755 5753 5750 5748 5745 5743 5740 5737 5735 5733 5732 5731 5730 5731 5732 5734 5736 5737 5738 5739 5740 5740 5741 5741 5741 5740
5790 5790 5789 5787 5785 5782 5780 5778 5775 5773 5770 5768 5765 5762 5759 5757 5754 5751 5749 5747 5744 5742 5739 5735 5732 5730 5727 5725 5724 5724 5725 5726 5728 5731 5734 5736 5737 5738 5739 5739 5740 5739 5739
5786 5787 5784 5782 5781 5779 5777 5774 5771 5769 5767 5765 5762 5759 5755 5753 5750 5748 5745 5743 5742 5739 5735 5731 5728 5726 5723 5721 5719 5719 5720 5721 5724 5727 5731 5734 5736 5736 5737 5737 5738 5738 5737
5778 5778 5777 5776 5774 5773 5771 5769 5767 5765 5763 5761 5758 5755 5751 5749 5746 5744 5742 5740 5738 5736 5733 5729 5726 5723 5720 5719 5717 5716 5716 5717 5719 5723 5727 5731 5733 5734 5734 5735 5736 5736 5736
5769 5768 5767 5768 5766 5765 5764 5763 5761 5760 5759 5757 5755 5752 5749 5746 5743 5740 5738 5736 5734 5732 5730 5727 5724 5721 5719 5717 5715 5714 5714 5715 5717 5719 5723 5728 5730 5731 5732 5732 5733 5734 5735
5760 5759 5759 5759 5758 5758 5756 5755 5754 5753 5752 5750 5749 5747 5744 5741 5739 5736 5733 5731 5729 5728 5726 5724 5722 5719 5718 5715 5713 5713 5714 5713 5714 5717 5720 5724 5726 5728 5729 5730 5732 5733 5733
5754 5753 5753 5752 5752 5750 5748 5747 5746 5744 5743 5741 5740 5739 5737 5736 5733 5731 5728 5726 5725 5723 5722 5720 5719 5717 5715 5713 5712 5712 5711 5712 5713 5715 5717 5720 5723 5725 5727 5729 5730 5731 5732
5749 5747 5747 5747 5744 5742 5740 5738 5737 5735 5734 5732 5732 5732 5731 5729 5727 5725 5722 5720 5719 5718 5717 5715 5714 5712 5710 5709 5709 5709 5710 5712 5713 5714 5716 5718 5721 5723 5726 5728 5729 5731 5732
5743 5741 5739 5738 5736 5733 5731 5729 5727 5725 5724 5723 5723 5724 5723 5722 5720 5718 5716 5715 5714 5712 5711 5710 5709 5707 5706 5706 5706 5707 5708 5710 5713 5715 5716 5718 5720 5721 5724 5727 5728 5730 5732
5738 5735 5732 5730 5728 5726 5723 5720 5717 5715 5714 5713 5713 5713 5713 5713 5712 5711 5709 5708 5707 5705 5704 5704 5704 5704 5703 5703 5703 5705 5707 5709 5711 5713 5716 5718 5719 5721 5723 5725 5727 5729 5731
5732 5728 5725 5722 5719 5717 5712 5708 5704 5701 5702 5702 5701 5702 5702 5702 5701 5701 5700 5699 5698 5698 5697 5698 5698 5698 5697 5698 5696 5697 5702 5707 5710 5713 5717 5718 5719 5721 5723 5724 5726 5728 5731
5726 5723 5720 5716 5713 5709 5705 5701 5697 5695 5693 5693 5691 5691 5691 5690 5690 5691 5691 5690 5690 5689 5690 5690 5690 5690 5691 5693 5690 5688 5689 5697 5706 5714 5716 5717 5719 5720 5722 5724 5725 5727 5728
5722 5720 5716 5711 5707 5703 5700 5695 5691 5687 5684 5682 5681 5680 5680 5680 5680 5680 5681 5681 5681 5680 5680 5681 5683 5682 5682 5686 5687 5685 5682 5684 5694 5705 5711 5715 5717 5718 5720 5723 5725 5726 5727
5719 5716 5711 5705 5700 5697 5693 5687 5682 5676 5672 5672 5671 5670 5670 5670 5670 5671 5672 5673 5672 5672 5671 5672 5674 5675 5675 5676 5679 5682 5683 5685 5684 5689 5700 5708 5712 5715 5718 5721 5723 5725 5726
5715 5710 5704 5698 5694 5690 5686 5681 5676 5671 5667 5665 5664 5662 5660 5660 5660 5660 5661 5663 5663 5662 5663 5663 5665 5666 5667 5668 5669 5672 5675 5678 5681 5680 5684 5694 5702 5709 5714 5717 5720 5723 5725
5708 5702 5697 5691 5687 5683 5679 5675 5670 5665 5661 5657 5655 5652 5650 5650 5650 5650 5650 5651 5652 5652 5652 5653 5655 5657 5658 5659 5661 5664 5666 5668 5671 5674 5676 5682 5689 5699 5708 5712 5715 5719 5723